Showing default

TIANQI-6, 46810

Orbit data source: Space-Track

TIANQI-6, 46810 is a payload satellite owned by Guodian Gaokeji (CN) in LEO that was launched on Mon, 26 Oct 2020 UTC via a CHANG ZHENG 2C launch vehicle from the Xichang Space Center, China (XSC). Payload-class satellites include a variety of spacecraft equipped with specific instruments for various scientific and technological missions. These include communications satellites like Starlink; space stations such as the ISS; scientific satellites like the Hubble; Earth observation satellites from companies like Planet Labs, Umbra, and HawkEye 360; GPS; miniature CubeSats for education and research; and military/defense satellites.

Loading next visibility...
Identifier
46810, 2020-076D
Orbit
LEO
Country
Flag of CNCN / PRC
Related business
Manufacturer
Shanghai ASES
Mission
Operational Commercial Communications
Bus & Motor
STARLIGHTB, Unknown motor
Mass
40 kg wet, ~40 kg dry
Launch date (UTC)
2020-10-26 (5 years ago)
Launch vehicle
CHANG ZHENG 2C
Launch site
Xichang Space Center, China (XSC)
Object type
Payload
Rocket body
Debris
Shape & HBR
Box, 0.3 m
Radar Cross Section
0.195 m², Medium (>0.1 m² and < 1m²)

Expand to show TLE details & history
Last TLE update: 15 hours ago

TLE from 15 hours ago
0 TIANQI-6
1 46810U 20076D   25292.11345846  .00009041  00000-0  62925-3 0  9997
2 46810  34.9988  85.5642 0010662 211.3897 148.6176 15.04726621272219
Epoch: 2025-10-19T02:43Z
TLE epoch observation values (Epoch: 2025-10-19T02:43:22.810Z)
Latitude
-0.00005°
Longitude
16.88431°
Altitude
557.57 km
Speed
7.582 km/s
True Right ascension
05h 42m 15s
True Declination
0° 00' 00"
Sunlit
Object was in full shadow at epoch
Visualization orbit readout
Latitude
Unknown
Longitude
Unknown
Altitude
Unknown
Speed
Unknown
Apparent Right ascension
Unknown
Apparent Declination
Unknown
Sunlit
N/A
Visualization observer readout
Local Sidereal Time
12:44:31
Azimuth
Unknown
Elevation
Unknown
Doppler factor
Unknown
Orbital elements
Apogee altitude
562.962 km
Perigee altitude
548.177 km
Semi-major axis
6,933.706 km
Eccentricity
0.00107
Inclination
34.9988°
RAAN
85.5642°
Arg. of periapsis
211.3897°
True anomaly
148.68115°
Mean anomaly
148.6176°
Eccentric anomaly
148.64938°
Mean motion
3.7592 °/min
Orbital period
95.77 mins
BSTAR
0.00062925
Loading maneuver chart data...
Computing Atmospheric mass density...
Loading historical data...
Loading historical data...
Loading historical data...
Loading historical data...
Loading historical data...
Loading historical data...
Loading historical data...
Other satellites on launch #76 in the year 2020 (2020-10-26 UTC)

Documentation

Showing up to 5 results
|